[Iaude] MPEC J151: 2024 JP3 [a=2.25,e=0.54,i=1.5,H=27.4]

mpec at cfa.harvard.edu mpec at cfa.harvard.edu
Wed May 8 07:02:29 EDT 2024


M.P.E.C. 2024-J151                                  Issued 2024 May 8, 11:00 UT

     The Minor Planet Electronic Circulars contain information on unusual
         minor planets, routine data on comets and natural satellites,
         and occasional editorial announcements.  They are published
    on behalf of Division F of the International Astronomical Union by the
          Minor Planet Center, Smithsonian Astrophysical Observatory,
                          Cambridge, MA 02138, U.S.A.
			  
             Prepared using the Tamkin Foundation Computer Network

                              MPC at CFA.HARVARD.EDU
            URL https://www.minorplanetcenter.net/    ISSN 1523-6714

                                    2024 JP3                                    


Observations:
     K24J03P*1C2024 05 07.28742714 37 55.931-03 58 47.46         20.35GVEJ151G96
     K24J03P 1C2024 05 07.29266114 38 03.361-03 59 46.39         20.67GVEJ151G96
     K24J03P 1C2024 05 07.29788614 38 10.885-04 00 45.04         20.37GVEJ151G96
     K24J03P 1C2024 05 07.30313114 38 18.424-04 01 44.51         20.05GVEJ151G96
     K24J03P  C2024 05 07.34555114 39 18.231-04 09 48.15         20.2 GVEJ151H01
     K24J03P  C2024 05 07.34936014 39 23.702-04 10 30.95         20.3 GVEJ151H01
     K24J03P  C2024 05 07.35961314 39 38.449-04 12 26.12         20.8 GVEJ151H01
     K24J03P  C2024 05 07.36641914 39 48.252-04 13 42.65         20.5 GVEJ151H01
     K24J03P KC2024 05 07.38751714 40 19.380-04 17 33.61               VEJ151I52
     K24J03P KC2024 05 07.38844714 40 20.694-04 17 44.02         20.94GVEJ151I52
     K24J03P KC2024 05 07.38937414 40 22.040-04 17 54.78         20.18GVEJ151I52
     K24J03P KC2024 05 07.39030014 40 23.344-04 18 05.04         20.21GVEJ151I52
     K24J03P KC2024 05 08.13887 14 59 36.482-06 36 54.43         19.9 GVEJ151H36
     K24J03P KC2024 05 08.14833 14 59 49.925-06 38 42.11         20.6 GVEJ151H36
     K24J03P KC2024 05 08.15778 15 00 03.586-06 40 22.04         20.6 GVEJ151H36
     K24J03P KC2024 05 08.20123815 01 03.81 -06 48 21.8          20.8 GVEJ151H21
     K24J03P KC2024 05 08.20750115 01 12.69 -06 49 30.2          20.4 GVEJ151H21
     K24J03P KC2024 05 08.21262615 01 19.90 -06 50 25.9          20.9 GVEJ151H21
     K24J03P KC2024 05 08.26222115 02 35.920-06 58 57.58         20.33GVEJ151I52
     K24J03P KC2024 05 08.26315415 02 37.230-06 59 08.16         20.58GVEJ151I52
     K24J03P KC2024 05 08.26408115 02 38.533-06 59 17.70         21.43GVEJ151I52
     K24J03P KC2024 05 08.26501315 02 39.865-06 59 27.67         20.58GVEJ151I52
     K24J03P 1C2024 05 08.33738215 04 21.371-07 12 28.91         20.23GVEJ151G96
     K24J03P 1C2024 05 08.34255915 04 28.567-07 13 23.45         20.26GVEJ151G96
     K24J03P 1C2024 05 08.34774015 04 35.904-07 14 19.61         19.74GVEJ151G96
     K24J03P 1C2024 05 08.35289915 04 43.118-07 15 14.18         20.89GVEJ151G96

Observer details:
G96 Mt. Lemmon Survey.  Observers G. J. Leonard, J. K. Hogan.  Measurers T.
    Beuden, V. F. Carvajal, D. Fay, J. B. Fazekas, D. C. Fuls, A. R. Gibbs, A.
    D. Grauer, H. Groeller, J. K. Hogan, R. A. Kowalski, S. M. Larson, G. J.
    Leonard, D. Rankin, R. L. Seaman, F. C. Shelly, K. W. Wierzchos.  1.5-m
    reflector + 10K CCD.
H01 Magdalena Ridge Observatory, Socorro.  Observers W. H. Ryan, E. V. Ryan.
    Measurer W. H. Ryan.  2.4-m f/8.9 Ritchey-Chretien + CCD.
H21 Astronomical Research Observatory, Westfield.  Observer R. Holmes.
    Measurers T. Linder, R. Holmes, L. Horn.  0.81-m f/4.0 astrograph + CCD.
H36 Sandlot Observatory, Scranton.  Observer G. Hug.  0.56-m f/4.8 .56 meter
    Reflector + CCD.
I52 Steward Observatory, Mt. Lemmon Station.  Observer H. Groeller.  Measurers
    T. Beuden, V. F. Carvajal, D. Fay, J. B. Fazekas, D. C. Fuls, A. R. Gibbs,
    A. D. Grauer, H. Groeller, J. K. Hogan, R. A. Kowalski, S. M. Larson, G.
    J. Leonard, D. Rankin, R. L. Seaman, F. C. Shelly, K. W. Wierzchos.  1.0-m
    prime focus + CCD.

Orbital elements:
2024 JP3                                                 Earth MOID = 0.0305 AU
Epoch 2024 Mar. 31.0 TT = JDT 2460400.5                 Veres                   
M 351.11603              (2000.0)            P               Q                  
n   0.29286004     Peri.  158.52490     -0.78166597     +0.62331032             
a   2.2457563      Node    60.05236     -0.57585962     -0.70773664             
e   0.5383584      Incl.    1.45273     -0.23954959     -0.33255540             
P   3.37           H   27.42          G   0.15           U   7                  
Residuals in seconds of arc
240507 G96  0.4-  0.2-    240507 I52  0.1-  0.2+    240508 I52  0.0   0.2+
240507 G96  1.0-  0.0     240507 I52  0.0   0.2-    240508 I52  0.0   0.2-
240507 G96  0.1-  0.4+    240507 I52  0.5-  0.1-    240508 I52  0.1-  0.3+
240507 G96  0.7+  0.1+    240508 H36  0.1-  1.0+    240508 I52  0.2+  0.4+
240507 H01  0.1+  0.0     240508 H36 (2.8-  2.6-)   240508 G96  0.2+  0.5-
240507 H01  0.1+  0.0     240508 H36  1.2-  1.1+    240508 G96  0.8-  0.4+
240507 H01  0.1+  0.0     240508 H21  0.2+  0.1+    240508 G96  0.2+  0.3-
240507 H01  0.1+  0.2-    240508 H21  0.3+  0.2-    240508 G96  0.1-  0.3+
240507 I52  0.3+  0.2+    240508 H21  0.4-  0.1-

Ephemeris:
2024 JP3                 a,e,i = 2.25, 0.54, 1                   q = 1.0367
Date    TT    R. A. (2000) Decl.     Delta      r    Elong.  Phase     V
2024 04 08    09 58 56.8 +22 42 28   0.1169  1.0727   125.0    49.8    24.8
...
2024 04 23    10 49 12.8 +20 21 52   0.06377 1.0407   122.1    54.9    23.5
...
2024 05 01    12 18 04.5 +12 42 20   0.03977 1.0368   136.5    42.0    22.1
...
2024 05 07    14 30 36.3 -03 01 41   0.03201 1.0400   164.8    14.7    20.9
2024 05 08    14 55 56.1 -06 08 23   0.03231 1.0410   169.0    10.6    20.7
2024 05 09    15 20 42.1 -09 05 08   0.03311 1.0422   170.8     8.9    20.7
...
2024 05 15    17 16 15.1 -20 26 38   0.04583 1.0524   154.5    24.5    22.0
...
2024 05 23    18 27 39.8 -24 55 37   0.07303 1.0736   145.7    32.1    23.3
...
2024 06 07    19 06 13.5 -26 47 14   0.1336  1.1340   151.4    25.4    24.5

M. P. C. Staff               (C) Copyright 2024 MPC           M.P.E.C. 2024-J151





More information about the Iaude mailing list